Powrót do katalogu

COSMOS 2251 DEB

AktywnyVLEO
NORAD 35996·DEBRIS·🇷🇺 Russia

Wystrzelony Jun 16, 1993 z Plesetsk Cosmodrome

Loading…

Następne Przeloty (najbliższe 24 godziny)

TLE

ŚwieżeSource: Space-Track

Epoka: Sep 14, 2026, 08:08 UTC

1 35996U 93036AWN 26257.33907170  .00007501  00000-0  37906-3 0  9996
2 35996  74.0235 252.0628 0084079 271.2898  87.8665 15.14130193764910

Śledź COSMOS 2251 DEB w czasie rzeczywistym z AllMySat

Download on the App Store